Ainsworth, NE

7:39 AM CDT on April 23, 2017 (GMT -0500)
Ainsworth Municipal

Weather History for KANW - February, 2014

Change the Weather History Date:

Tuesday, February 11, 2014

  Actual Average Record
Temperature  
Mean Temperature 22 °F -  
Max Temperature 35 °F 38 °F 62 °F (2005)
Min Temperature 8 °F 17 °F -6 °F (2012)
Degree Days  
Heating Degree Days 44    
Moisture  
Dew Point 18 °F    
Average Humidity 81    
Maximum Humidity 93    
Minimum Humidity 66    
Precipitation  
Precipitation 0.00 in - - ()
Sea Level Pressure  
Sea Level Pressure 29.98 in    
Wind  
Wind Speed 13 mph (SSW)    
Max Wind Speed 21 mph    
Max Gust Speed 25 mph    
Visibility 9 miles    
Events Snow    
Averages and records for this station are not official NWS values.
T = Trace of Precipitation, MM = Missing Value Source: NWS Daily Summary

Daily Weather History Graph

Daily Weather History Graph

Search for Another Location

Airport or City:

Trip Planner

Search our weather history database for the weather conditions in past years. The results will help you decide how hot, cold, wet, or windy it might be!

Date:

Astronomy

Feb. 11, 2014 Rise Set
Actual Time 7:42 AM CST 6:06 PM CST
Civil Twilight 7:12 AM CST 6:36 PM CST
Nautical Twilight 6:39 AM CST 7:09 PM CST
Astronomical Twilight 6:07 AM CST 7:41 PM CST
Moon 3:27 PM CST (2/11) 5:22 AM CST (2/11)
Length of Visible Light 11h 23m
Length of Day
10h 24m
Waxing Gibbous, 91% of the Moon is Illuminated
Feb 11
Waxing Gibbous
Feb 14
Full
Feb 22
Last Quarter
Mar 1
New
Mar 8
First Quarter

Hourly Weather History & Observations

Time (CST) Temp. Windchill Dew Point Humidity Pressure Visibility Wind Dir Wind Speed Gust Speed Precip Events Conditions
12:15 AM 14.5 °F 1.9 °F 10.4 °F 84% 30.20 in 10.0 mi South 10.4 mph - N/A   Overcast
12:35 AM 13.5 °F 1.3 °F 9.1 °F 83% 30.19 in 10.0 mi South 9.2 mph - N/A   Mostly Cloudy
12:55 AM 14.2 °F 1.4 °F 10.2 °F 84% 30.18 in 10.0 mi South 10.4 mph - N/A   Mostly Cloudy
1:15 AM 14.9 °F 2.3 °F 10.4 °F 82% 30.18 in 10.0 mi SSW 10.4 mph - N/A   Overcast
1:35 AM 15.3 °F 2.0 °F 10.8 °F 82% 30.17 in 10.0 mi SSW 11.5 mph - N/A   Overcast
1:55 AM 14.0 °F 1.2 °F 9.3 °F 82% 30.17 in 10.0 mi SSW 10.4 mph - N/A   Mostly Cloudy
2:15 AM 13.1 °F -0.7 °F 8.6 °F 82% 30.16 in 10.0 mi SSW 11.5 mph - N/A   Clear
2:35 AM 12.2 °F -1.0 °F 8.2 °F 84% 30.15 in 10.0 mi South 10.4 mph - N/A   Scattered Clouds
2:55 AM 11.8 °F -2.3 °F 7.7 °F 83% 30.15 in 10.0 mi South 11.5 mph - N/A   Scattered Clouds
3:15 AM 11.3 °F -3.6 °F 7.5 °F 85% 30.14 in 10.0 mi SSW 12.7 mph - N/A   Clear
3:35 AM 12.2 °F -1.0 °F 8.4 °F 85% 30.14 in 10.0 mi SSW 10.4 mph - N/A   Mostly Cloudy
3:55 AM 10.8 °F -4.3 °F 6.8 °F 84% 30.12 in 10.0 mi SSW 12.7 mph - N/A   Mostly Cloudy
4:15 AM 9.3 °F -6.1 °F 5.9 °F 86% 30.12 in 10.0 mi South 12.7 mph 17.3 mph N/A   Scattered Clouds
4:16 AM 8.6 °F -7.0 °F 6.8 °F 92% 30.12 in 10.0 mi South 12.7 mph 17.3 mph N/A   Scattered Clouds
4:35 AM 8.6 °F -6.3 °F 5.7 °F 88% 30.11 in 10.0 mi SSW 11.5 mph - N/A   Clear
4:55 AM 8.6 °F -6.3 °F 6.1 °F 89% 30.10 in 7.0 mi SSW 11.5 mph - N/A Snow Light Snow
5:15 AM 9.1 °F -5.6 °F 6.8 °F 90% 30.10 in 7.0 mi SSW 11.5 mph - N/A Snow Light Snow
5:35 AM 10.2 °F -5.0 °F 8.2 °F 92% 30.10 in 7.0 mi SSW 12.7 mph - N/A Snow Light Snow
5:36 AM 10.4 °F -4.1 °F 8.6 °F 92% 30.10 in 7.0 mi SSW 11.5 mph - N/A Snow Light Snow
5:55 AM 10.8 °F -2.0 °F 8.8 °F 92% 30.10 in 7.0 mi SSW 9.2 mph - N/A   Scattered Clouds
6:15 AM 11.8 °F -2.3 °F 9.9 °F 92% 30.09 in 7.0 mi SSW 11.5 mph - N/A   Mostly Cloudy
6:35 AM 12.2 °F -0.2 °F 10.0 °F 91% 30.08 in 7.0 mi South 9.2 mph - N/A   Overcast
6:55 AM 13.1 °F -1.4 °F 10.9 °F 91% 30.08 in 7.0 mi SSW 12.7 mph - N/A   Overcast
7:15 AM 13.1 °F -2.0 °F 11.1 °F 92% 30.07 in 7.0 mi SSW 13.8 mph - N/A   Scattered Clouds
7:35 AM 14.5 °F 0.5 °F 12.6 °F 92% 30.06 in 7.0 mi SSW 12.7 mph - N/A   Mostly Cloudy
7:55 AM 14.9 °F 1.6 °F 13.1 °F 93% 30.06 in 5.0 mi South 11.5 mph - N/A   Overcast
8:15 AM 15.3 °F 0.8 °F 13.1 °F 91% 30.05 in 5.0 mi South 13.8 mph - N/A   Mostly Cloudy
8:35 AM 15.3 °F -0.9 °F 13.1 °F 91% 30.04 in 7.0 mi SSW 17.3 mph - N/A   Scattered Clouds
8:55 AM 15.4 °F -0.1 °F 13.5 °F 92% 30.03 in 5.0 mi SSW 16.1 mph - N/A   Clear
9:15 AM 16.5 °F 1.3 °F 14.4 °F 91% 30.03 in 5.0 mi SSW 16.1 mph - N/A   Clear
9:35 AM 17.2 °F 1.7 °F 15.1 °F 91% 30.02 in 2.5 mi SSW 17.3 mph - N/A   Mist
9:36 AM 17.6 °F 2.7 °F 15.8 °F 93% 30.02 in 2.5 mi SSW 16.1 mph - N/A   Mist
9:55 AM 18.5 °F 3.3 °F 16.2 °F 91% 30.02 in 4.0 mi SSW 17.3 mph - N/A   Scattered Clouds
10:15 AM 19.6 °F 4.7 °F 16.9 °F 89% 30.01 in 5.0 mi SSW 17.3 mph 23.0 mph N/A   Scattered Clouds
10:35 AM 21.0 °F 5.7 °F 17.2 °F 85% 30.01 in 7.0 mi SSW 19.6 mph - N/A   Clear
10:55 AM 22.1 °F 6.8 °F 18.3 °F 85% 30.00 in 7.0 mi SSW 20.7 mph - N/A   Clear
11:15 AM 23.4 °F 8.4 °F 19.2 °F 84% 29.99 in 7.0 mi SSW 20.7 mph 25.3 mph N/A   Clear
11:35 AM 24.3 °F 9.6 °F 19.8 °F 83% 29.99 in 7.0 mi SSW 20.7 mph - N/A   Clear
11:55 AM 25.7 °F 11.9 °F 20.5 °F 81% 29.97 in 7.0 mi South 19.6 mph 24.2 mph N/A   Clear
12:15 PM 27.3 °F 14.0 °F 21.7 °F 80% 29.95 in 7.0 mi South 19.6 mph 24.2 mph N/A   Clear
12:35 PM 27.5 °F 14.2 °F 21.7 °F 79% 29.95 in 7.0 mi SSW 19.6 mph - N/A   Clear
12:55 PM 28.0 °F 14.6 °F 22.1 °F 78% 29.93 in 7.0 mi South 20.7 mph 25.3 mph N/A   Clear
1:15 PM 29.3 °F 17.3 °F 22.8 °F 77% 29.92 in 10.0 mi SSW 17.3 mph 20.7 mph N/A   Clear
1:35 PM 30.4 °F 17.7 °F 23.2 °F 75% 29.90 in 10.0 mi SSW 20.7 mph 25.3 mph N/A   Clear
1:55 PM 31.6 °F 21.6 °F 23.5 °F 72% 29.89 in 10.0 mi SSW 13.8 mph 23.0 mph N/A   Clear
2:15 PM 32.9 °F 22.8 °F 24.4 °F 71% 29.88 in 10.0 mi SSW 15.0 mph - N/A   Clear
2:35 PM 33.3 °F 23.7 °F 24.8 °F 71% 29.87 in 10.0 mi SSW 13.8 mph - N/A   Clear
2:55 PM 34.5 °F 25.3 °F 25.2 °F 69% 29.86 in 10.0 mi SSW 13.8 mph - N/A   Clear
3:15 PM 35.6 °F 25.9 °F 25.3 °F 66% 29.85 in 10.0 mi SSW 16.1 mph - N/A   Clear
3:35 PM 35.1 °F 26.4 °F 25.3 °F 68% 29.85 in 10.0 mi SSW 12.7 mph - N/A   Clear
3:55 PM 34.7 °F 24.7 °F 25.3 °F 69% 29.85 in 10.0 mi SSW 16.1 mph - N/A   Clear
4:15 PM 34.7 °F 25.9 °F 25.5 °F 69% 29.85 in 10.0 mi SSW 12.7 mph - N/A   Clear
4:35 PM 34.3 °F 25.5 °F 25.5 °F 70% 29.85 in 10.0 mi SSW 12.7 mph - N/A   Clear
4:55 PM 34.3 °F 26.5 °F 26.2 °F 72% 29.84 in 10.0 mi SSW 10.4 mph - N/A   Clear
5:15 PM 34.3 °F 25.9 °F 26.1 °F 72% 29.84 in 10.0 mi SSW 11.5 mph - N/A   Clear
5:35 PM 33.8 °F 24.8 °F 26.4 °F 74% 29.83 in 10.0 mi SSW 12.7 mph - N/A   Clear
5:55 PM 33.1 °F 23.9 °F 26.2 °F 76% 29.83 in 10.0 mi SSW 12.7 mph - N/A   Scattered Clouds
6:15 PM 32.9 °F 24.1 °F 26.2 °F 76% 29.83 in 10.0 mi SSW 11.5 mph - N/A   Scattered Clouds
6:35 PM 32.5 °F 23.7 °F 26.2 °F 78% 29.83 in 10.0 mi SSW 11.5 mph - N/A   Scattered Clouds
6:55 PM 32.2 °F 22.7 °F 25.7 °F 77% 29.84 in 10.0 mi SSW 12.7 mph 18.4 mph N/A   Scattered Clouds
7:15 PM 32.0 °F 23.0 °F 24.8 °F 75% 29.84 in 10.0 mi SSW 11.5 mph - N/A   Scattered Clouds
7:35 PM 31.6 °F 22.1 °F 24.8 °F 76% 29.85 in 10.0 mi SW 12.7 mph 17.3 mph N/A   Scattered Clouds
7:55 PM 31.8 °F 22.8 °F 24.8 °F 75% 29.84 in 10.0 mi SW 11.5 mph - N/A   Mostly Cloudy
8:15 PM 31.8 °F 22.8 °F 25.2 °F 76% 29.84 in 10.0 mi SW 11.5 mph - N/A   Mostly Cloudy
8:35 PM 31.8 °F 23.9 °F 25.2 °F 76% 29.84 in 10.0 mi SSW 9.2 mph - N/A   Overcast
8:55 PM 31.5 °F 22.9 °F 24.8 °F 76% 29.84 in 10.0 mi SW 10.4 mph - N/A   Mostly Cloudy
9:15 PM 31.6 °F 22.6 °F 25.3 °F 78% 29.84 in 10.0 mi SSW 11.5 mph - N/A   Mostly Cloudy
9:35 PM 32.0 °F 23.6 °F 25.7 °F 78% 29.84 in 10.0 mi SSW 10.4 mph - N/A   Overcast
9:55 PM 32.0 °F 24.2 °F 25.7 °F 78% 29.83 in 10.0 mi SSW 9.2 mph - N/A   Overcast
10:15 PM 32.0 °F 23.0 °F 25.7 °F 78% 29.83 in 10.0 mi SW 11.5 mph - N/A   Overcast
10:19 PM 32.0 °F 23.0 °F 24.8 °F 75% 29.83 in 10.0 mi SW 11.5 mph - N/A   Mostly Cloudy
10:35 PM 31.5 °F 23.5 °F 25.5 °F 79% 29.84 in 7.0 mi SW 9.2 mph - N/A   Mostly Cloudy
10:55 PM 31.5 °F 22.3 °F 25.7 °F 79% 29.86 in 7.0 mi WSW 11.5 mph - N/A   Overcast
11:15 PM 32.9 °F 24.1 °F 27.3 °F 80% 29.88 in 10.0 mi West 11.5 mph - N/A   Overcast
11:35 PM 34.7 °F 26.9 °F 27.7 °F 76% 29.88 in 10.0 mi NNW 10.4 mph - N/A   Overcast
11:55 PM 34.7 °F 25.5 °F 28.4 °F 78% 29.88 in 10.0 mi NNW 13.8 mph - N/A   Scattered Clouds